Weather in Utamysh

Russia / Republic of Dagestan     42°24′28″N   47°45′05″E
temp.,
°C
wind,
m/s
gust,
m/s
humid.,
%
clouds,
%
prec.,
mm/h
press.,
hPa
HPBL,
m
18 april, sun
sun1800:00+13wnw226698 0.0 101911
03:00+12wnw2269100 0.0 101913
06:00+13wsw1172100 0.0 101917
09:00+16ne225987 0.0 1018615
12:00+17ne3257100 0.0 1016672
15:00+17nne445218 0.8 1016663
18:00+13wnw1269100 0.8 1018142
21:00+14sw2275100 1.4 101741
19 april, mon
mon1900:00+12wnw0079100 0.1 101710
03:00+11nne0180100 0.1 101710
06:00+13s1275100 0.0 101718
09:00+17e336090 0.0 1017450
12:00+18ese454871 0.0 1016678
15:00+17ese33478 0.0 1016562
18:00+14se345832 0.0 1016178
21:00+13s3360100 0.0 101635
20 april, tue
tue2000:00+13s346199 0.0 101544
03:00+13sse3466100 0.0 101340
06:00+13sse4565100 0.0 1014112
09:00+17se5753100 0.0 1013454
12:00+20ese6751100 0.0 1010578
15:00+18ese4559100 0.0 1008309
18:00+16sse5667100 0.0 1007157
21:00+16sse446498 0.0 100668
21 april, wed
wed2100:00+13nnw5973100 0.0 1009181
03:00+15nw227298 0.0 100917
06:00+14n1280100 0.0 101256
09:00+16ene227747 0.0 1013444
12:00+18n346796 0.0 1014847
15:00+16nw11126560 0.5 1016796
18:00+13nw71173100 0.9 1018583
21:00+12nw6107577 1.3 1019429
22 april, thu
thu2200:00+12nnw487392 0.0 1020355
03:00+11nnw238098 0.0 102069
06:00+11wnw127921 0.0 1021154
09:00+15n455624 0.0 1021910
12:00+17n445035 0.0 10201214
15:00+17nne455471 0.0 10191063
18:00+14n3567100 0.0 1020460
21:00+13nnw366798 0.0 1020480